User: anonymous   Login
Location: Recife
(8.0585°S, 34.8848°W)
Time: 18:57:51
(UTC-03:00)
Language:

N. Korean satellite - Orbit

View from above orbital plane
View from above orbital plane
View from above satellite
View from above satellite

Ground track
Ground track

The orbit data is extracted from the following two-line orbital elements,

1 39026U 12072A   21301.39302122  .00006755  00000-0  22313-3 0  9998
2 39026  97.2554 291.1671 0032605 270.2228  89.5278 15.31192552493425
Epoch (UTC): 28 October 2021 09:25:57
Eccentricity: 0.0032605
inclination: 97.2554°
perigee height: 450 km
apogee height: 494 km
right ascension of ascending node: 291.1671°
argument of perigee: 270.2228°
revolutions per day: 15.31192552
mean anomaly at epoch: 89.5278°
orbit number at epoch: 49342

The dashed part of the orbit path shows where the satellite is in the earth's shadow,  

DLR